Погода в Лебяжьем

Россия / Кировская область     57°24′42″N   49°31′10″E
темп.,
°C
ветер,
м/с
пор.,
м/с
влажн.,
%
обл.,
%
осадки,
мм/ч
давл.,
гПа
погр.,
м
22 апреля, чт
чт2200:00+2ююв61497100 1.0 1020795
03:00+3ююв61395100 1.4 1020762
06:00+3ю51396100 0.1 1020600
09:00+5ююз51190100 0.1 1021738
12:00+8ю5877100 0.0 1021936
15:00+8ююв5982100 0.0 1021798
18:00+8ююв6138385 0.0 1021883
21:00+5ю399450 0.4 1022251
23 апреля, пт
пт2300:00+3ююв249835 0.1 102386
03:00+2ююз119827 0.1 102413
06:00+4ю129311 0.0 102559
09:00+9ю23725 0.0 1025590
12:00+12ю235540 0.0 10241511
15:00+14юв334921 0.0 10231659
18:00+11вюв36675 0.0 1023142
21:00+7юв368522 0.0 1023130
24 апреля, сб
сб2400:00+6вюв249188 0.0 102266
03:00+6вюв3989100 0.0 1020295
06:00+6в41187100 0.0 1019453
09:00+8вюв5976100 0.0 1017764
12:00+7вюв4887100 0.3 10161068
15:00+6в4893100 1.3 1014995
18:00+6вюв4895100 0.6 1012899
21:00+6вюв5994100 0.9 1010863
25 апреля, вс
вс2500:00+5вюв5994100 0.1 1007862
03:00+5юв51193100 0.4 1005667
06:00+5юв5996100 3.7 1003888
09:00+3юз41097100 5.0 1004668
12:00+5зюз51282100 0.1 10051346
15:00+9з6116027 0.9 10072027
18:00+7зюз496364 0.1 1009321
21:00+4юз4117991 0.5 1010348
26 апреля, пн
пн2600:00+2юз412825 0.0 1011320
03:00+1юз5128617 0.0 1012395
06:00+2юз5128346 0.1 1013602
09:00+6юз69635 0.1 10141289
12:00+8юз6105189 0.2 10141967
15:00+10юз6104789 0.3 10132379
18:00+7юз596882 0.4 1012686
21:00+5юз31084100 0.9 1012390